TSIOLKOVSKY-RYAZAN 1 (*)

Last updated on Sat Jan 28 2023 00:02:07 GMT+0000 (Coordinated Universal Time)

1 53312U 98067TX 23027.23010772 .07984851 12172-4 10935-2 0 9999 2 53312 51.6130 285.5123 0006786 228.9660 131.0778 16.34340713 29693

Satellite not in orbit

TSIOLKOVSKY-RYAZAN 1 (*)